Miscellaneous Local Product
Issued by NWS North Platte, NE

Home | Current Version | Previous Version | Graphics & Text | Print | Product List | Glossary On
Versions: 1 2 3 4 5 6 7 8 9 10 11 12 13 14 15 16 17 18 19 20 21 22 23 24 25 26 27 28 29 30 31 32 33 34 35 36 37 38 39 40 41 42 43 44 45 46 47 48 49 50
000
AXUS43 KLBF 260410
MISLBF


WESTERN AND NORTH CENTRAL NEBRASKA HOURLY WEATHER ROUNDUP
NATIONAL WEATHER SERVICE NORTH PLATTE NE
1100 PM CDT SUN SEP 25 2016

NOTE: "FAIR" INDICATES FEW OR NO CLOUDS BELOW 12,000 FEET WITH NO
SIGNIFICANT WEATHER AND/OR OBSTRUCTIONS TO VISIBILITY.

NOTE: STATIONS NOT REPORTING VARIABLES SUCH AS SKY/WEATHER OR
PRESSURE ARE PROVIDED BY RAWS AND APRS NETWORKS AND ARE NOT UNDER
NATIONAL WEATHER SERVICE QUALITY CONTROL.

...OBSERVATIONS IN AND NEAR THE EASTERN PANHANDLE OF NEBRASKA...

CITY           SKY/WX    TMP DP  RH WIND       PRES   REMARKS
PINE RIDGE     CLEAR     37  30  75 E6        30.35S HAZE    WCI  32
CHADRON        CLEAR     43  35  73 CALM      30.35S
ALLIANCE       CLEAR     37  31  78 SW6       30.37S WCI  32
SIDNEY         CLEAR     40  34  79 SW8       30.42R WCI  34
CRESCENT LAKE    N/A     49  31  49 CALM        N/A
$$

...OBSERVATIONS IN NORTHERN NEBRASKA AND FAR SOUTHERN SOUTH DAKOTA...

CITY           SKY/WX    TMP DP  RH WIND       PRES   REMARKS
WINNER         FAIR      48  32  53 W6        30.27S
VALENTINE      CLEAR     44  29  55 W8        30.31S
THEDFORD       CLEAR     45  31  58 W5        30.35S
AINSWORTH      CLEAR     47  33  56 W7        30.31S
O`NEILL        CLEAR     49  32  52 W6        30.28S
ORD            CLEAR     43  33  68 NW6       30.29S
BROKEN BOW     CLEAR     44  28  53 N3        30.32S
VALENTINE NWR    N/A     47  30  51 W3          N/A
BUTTE            N/A     47  33  57 W5          N/A
HALSEY           N/A     49  27  42 CALM        N/A
EWING            N/A     45  38  76 CALM        N/A
$$

...OBSERVATIONS IN SOUTHWEST NEBRASKA AND FAR NORTHEAST COLORADO...

CITY           SKY/WX    TMP DP  RH WIND       PRES   REMARKS
WRAY           FAIR      46  32  57 CALM      30.40S
HOLYOKE        FAIR      45  36  70 W5        30.40S
IMPERIAL       CLEAR     50  33  52 W5        30.38R
OGALLALA       CLEAR     50  33  51 N9        30.37S
NORTH PLATTE   CLEAR     43  31  62 CALM      30.36R
MCCOOK         CLEAR     47  29  49 NW3       30.35S
LEXINGTON      CLEAR     45  31  58 CALM      30.34S
STAPLETON        N/A     47  28  48 CALM        N/A
GOTHENBURG       N/A     55  24  30 NW3         N/A
CALLAWAY         N/A     40  35  82 N5          N/A
$$

...OBSERVATIONS IN CENTRAL LINCOLN COUNTY AREA...

CITY           SKY/WX    TMP DP  RH WIND       PRES   REMARKS
N.P. AIRPORT   CLEAR     43  31  62 CALM      30.36R
N.P. DOWNTOWN    N/A     48  35  60 CALM        N/A
N.P. SOUTHEAST   N/A     50  33  51 CALM        N/A
N.P. HILLCREST   N/A     47  29  50 W3          N/A
$$

...SOME OBSERVATIONS FROM AROUND THE REGION...

CITY           SKY/WX    TMP DP  RH WIND       PRES   REMARKS
DENVER         CLEAR     48  27  44 S12       30.44R
LARAMIE        CLEAR     41  32  70 W7        30.51S
CHEYENNE       CLEAR     49  33  54 W5        30.47S
SCOTTSBLUFF    CLEAR     47  37  68 CALM      30.39R
RAPID CITY     CLEAR     46  34  62 W8        30.32S
BISMARCK       CLEAR     49  35  58 W10       30.18R
PIERRE         CLEAR     54  35  48 W9        30.23S
SIOUX FALLS    PTCLDY    51  39  63 W7        30.17S
OMAHA          CLEAR     57  40  52 NW10      30.21R
GRAND ISLAND   CLEAR     47  37  68 NW8       30.30S
KANSAS CITY    CLOUDY    60  55  83 W5        30.20R
WICHITA        CLOUDY    60  55  83 NW7       30.25R
OKLAHOMA CITY  CLOUDY    65  53  65 N14       30.22R
DALLAS         LGT RAIN  74  69  85 N14       30.08F
AMARILLO       CLOUDY    54  44  69 NE6       30.36R
DODGE CITY     CLEAR     49  40  71 N5        30.33R
HAYS           CLEAR     52  36  54 NW5       30.31R
GOODLAND       CLEAR     47  35  63 CALM      30.38S
$$




USA.gov is the U.S. government's official web portal to all federal, state and local government web resources and services.